PDT,Max TemperatureF,Mean TemperatureF,Min TemperatureF,Max Dew PointF,MeanDew PointF,Min DewpointF,Max Humidity, Mean Humidity, Min Humidity, Max Sea Level PressureIn, Mean Sea Level PressureIn, Min Sea Level PressureIn, Max VisibilityMiles, Mean VisibilityMiles, Min VisibilityMiles, Max Wind SpeedMPH, Mean Wind SpeedMPH, Max Gust SpeedMPH,PrecipitationIn, CloudCover, Events, WindDirDegrees
2012-10-1,95,80,64,39,31,25,37,18,8,30.11,30.02,29.95,10,10,10,12,3,,0.00,0,,16
2012-10-2,98,81,64,37,31,23,37,19,7,29.99,29.92,29.83,10,10,10,8,1,,0.00,0,,331
2012-10-3,98,82,66,36,29,25,30,16,7,29.95,29.90,29.86,10,10,10,15,4,23,0.00,0,,255
2012-10-4,91,78,64,41,34,28,40,22,11,30.03,29.96,29.92,10,10,10,12,4,20,0.00,0,,171
2012-10-5,87,74,62,43,35,27,45,25,12,30.04,29.96,29.91,10,10,10,8,2,,0.00,0,,103
2012-10-6,87,76,66,41,35,27,40,24,12,29.96,29.90,29.84,10,10,10,10,3,,0.00,0,,24
2012-10-7,84,73,62,39,28,18,40,21,10,30.00,29.92,29.87,10,10,10,13,5,,0.00,0,,27
2012-10-8,89,73,57,39,33,18,48,26,11,29.97,29.90,29.83,10,10,10,22,4,31,0.00,0,,159
2012-10-9,87,74,60,45,34,25,42,24,11,29.96,29.90,29.85,10,10,10,21,5,26,0.00,0,,149
2012-10-10,82,74,66,57,44,32,68,39,17,29.96,29.90,29.85,10,10,7,21,5,28,0.00,2,Thunderstorm,139
2012-10-11,66,60,53,59,56,48,94,81,68,29.93,29.87,29.83,10,9,3,14,6,22,0.39,4,Thunderstorm,25
2012-10-12,68,60,51,52,46,41,88,66,37,30.10,30.00,29.90,10,10,10,16,5,16,0.00,2,Thunderstorm,178
2012-10-13,73,62,50,52,47,45,87,63,38,30.24,30.16,30.10,10,10,10,10,2,,0.00,0,,34
2012-10-14,80,68,57,52,45,37,82,49,21,30.25,30.16,30.08,10,10,10,13,4,16,0.00,0,,3
2012-10-15,82,70,57,48,45,41,63,42,23,30.09,30.02,29.94,10,10,10,13,2,,0.00,0,,352
2012-10-16,86,70,55,48,44,36,72,42,18,29.98,29.89,29.78,10,10,9,7,1,,0.00,0,,110
2012-10-17,82,73,64,46,35,23,52,28,12,30.04,29.96,29.85,10,10,10,12,5,18,0.00,0,,20
2012-10-18,82,70,59,36,23,12,37,20,8,30.15,30.08,30.03,10,10,10,10,4,20,0.00,0,,10
2012-10-19,82,68,53,37,29,23,41,25,11,30.07,29.97,29.87,10,10,10,9,2,,0.00,0,,34
2012-10-20,84,68,53,37,31,25,54,28,11,29.87,29.79,29.70,10,10,8,22,3,29,0.00,0,,169
2012-10-21,82,70,59,43,39,34,48,32,17,29.80,29.76,29.72,10,10,10,24,6,31,0.00,0,,194
2012-10-22,80,70,60,46,40,28,49,35,15,29.86,29.80,29.76,10,10,9,28,10,43,0.00,0,,187
2012-10-23,77,66,55,41,26,9,54,27,8,29.89,29.83,29.78,10,10,6,25,11,31,0.00,0,,218
2012-10-24,71,60,50,32,27,16,50,28,13,30.04,29.93,29.82,10,10,10,22,6,,0.00,0,,235
2012-10-25,68,58,48,34,22,16,58,26,13,30.22,30.12,30.04,10,10,10,25,5,33,0.00,0,,33
2012-10-26,66,58,51,23,13,0,33,19,7,30.32,30.22,30.11,10,10,10,21,15,26,0.00,0,,5
2012-10-27,75,60,46,25,15,10,29,17,8,30.13,30.07,30.00,10,10,10,10,4,,0.00,0,,325
2012-10-28,77,62,48,32,24,18,41,25,12,30.11,30.05,30.01,10,10,10,6,1,,0.00,0,,21
2012-10-29,78,62,46,32,28,23,54,31,13,30.18,30.11,30.07,10,10,10,9,1,,0.00,0,,29
2012-10-30,80,64,48,34,28,23,54,29,13,30.15,30.08,30.01,10,10,10,9,1,,0.00,0,,21
2012-10-31,80,64,48,34,29,25,54,31,13,30.09,30.02,29.96,10,10,9,7,1,,0.00,0,,53